| time (UTC) | temp F | wind direction | speed MPH | gust MPH | rain 1hr in | rain 24hr in | rain mn in | humidity % | barometer mb |
| 20260504000005 | 78 | 202 | 13.0 | 19.0 | 0.00 | 0.00 | 0.00 | 34 | 1013.1 |
| 20260503235508 | 78 | 202 | 10.0 | 13.0 | 0.00 | 0.00 | 0.00 | 34 | 1013.1 |
| 20260503235005 | 78 | 180 | 14.0 | 17.0 | 0.00 | 0.00 | 0.00 | 32 | 1013.1 |
| 20260503234508 | 78 | 180 | 16.0 | 20.0 | 0.00 | 0.00 | 0.00 | 30 | 1013.4 |
| 20260503234005 | 78 | 202 | 14.0 | 19.0 | 0.00 | 0.00 | 0.00 | 31 | 1013.4 |
| 20260503233511 | 79 | 202 | 10.0 | 13.0 | 0.00 | 0.00 | 0.00 | 33 | 1013.4 |
| 20260503233006 | 79 | 180 | 11.0 | 14.0 | 0.00 | 0.00 | 0.00 | 31 | 1013.4 |
| 20260503232503 | 79 | 202 | 15.0 | 18.0 | 0.00 | 0.00 | 0.00 | 30 | 1013.4 |
| 20260503232006 | 79 | 180 | 16.0 | 20.0 | 0.00 | 0.00 | 0.00 | 31 | 1013.4 |
| 20260503231503 | 79 | 202 | 14.0 | 17.0 | 0.00 | 0.00 | 0.00 | 32 | 1013.8 |
| 20260503231006 | 78 | 202 | 15.0 | 20.0 | 0.00 | 0.00 | 0.00 | 30 | 1013.8 |
| 20260503230504 | 78 | 202 | 14.0 | 18.0 | 0.00 | 0.00 | 0.00 | 31 | 1013.4 |
| 20260503230007 | 78 | 202 | 12.0 | 14.0 | 0.00 | 0.00 | 0.00 | 32 | 1013.4 |
| 20260503225504 | 78 | 202 | 13.0 | 16.0 | 0.00 | 0.00 | 0.00 | 29 | 1013.4 |
| 20260503225033 | 79 | 202 | 13.0 | 16.0 | 0.00 | 0.00 | 0.00 | 30 | 1013.4 |
| 20260503224504 | 79 | 202 | 16.0 | 19.0 | 0.00 | 0.00 | 0.00 | 30 | 1013.4 |
| 20260503224007 | 79 | 180 | 14.0 | 17.0 | 0.00 | 0.00 | 0.00 | 30 | 1013.4 |
| 20260503223504 | 79 | 180 | 20.0 | 23.0 | 0.00 | 0.00 | 0.00 | 30 | 1013.4 |
| 20260503223007 | 79 | 180 | 13.0 | 16.0 | 0.00 | 0.00 | 0.00 | 31 | 1013.4 |
| 20260503222504 | 79 | 180 | 16.0 | 19.0 | 0.00 | 0.00 | 0.00 | 29 | 1013.4 |
| 20260503222007 | 80 | 180 | 14.0 | 19.0 | 0.00 | 0.00 | 0.00 | 29 | 1013.4 |
| 20260503221504 | 80 | 157 | 17.0 | 21.0 | 0.00 | 0.00 | 0.00 | 29 | 1013.4 |
| 20260503221003 | 80 | 180 | 13.0 | 19.0 | 0.00 | 0.00 | 0.00 | 29 | 1013.4 |
| 20260503220506 | 79 | 202 | 15.0 | 19.0 | 0.00 | 0.00 | 0.00 | 30 | 1013.8 |
| 20260503220003 | 80 | 180 | 17.0 | 20.0 | 0.00 | 0.00 | 0.00 | 29 | 1013.8 |
| 20260503215506 | 80 | 202 | 15.0 | 19.0 | 0.00 | 0.00 | 0.00 | 31 | 1013.8 |
| 20260503215003 | 80 | 202 | 13.0 | 17.0 | 0.00 | 0.00 | 0.00 | 32 | 1013.8 |
| 20260503214506 | 80 | 180 | 13.0 | 16.0 | 0.00 | 0.00 | 0.00 | 29 | 1013.8 |
| 20260503214009 | 80 | 202 | 13.0 | 17.0 | 0.00 | 0.00 | 0.00 | 30 | 1013.8 |
| 20260503213505 | 80 | 202 | 11.0 | 14.0 | 0.00 | 0.00 | 0.00 | 33 | 1014.1 |
| 20260503213009 | 80 | 202 | 17.0 | 20.0 | 0.00 | 0.00 | 0.00 | 30 | 1014.1 |
| 20260503212506 | 80 | 202 | 16.0 | 19.0 | 0.00 | 0.00 | 0.00 | 30 | 1014.4 |
| 20260503212004 | 79 | 202 | 12.0 | 15.0 | 0.00 | 0.00 | 0.00 | 29 | 1014.4 |
| 20260503211507 | 80 | 225 | 11.0 | 15.0 | 0.00 | 0.00 | 0.00 | 30 | 1014.4 |
| 20260503211004 | 80 | 180 | 12.0 | 16.0 | 0.00 | 0.00 | 0.00 | 31 | 1014.4 |
| 20260503210507 | 79 | 202 | 16.0 | 19.0 | 0.00 | 0.00 | 0.00 | 28 | 1014.8 |
| 20260503210005 | 79 | 202 | 19.0 | 23.0 | 0.00 | 0.00 | 0.00 | 29 | 1014.8 |
| 20260503205504 | 79 | 202 | 14.0 | 18.0 | 0.00 | 0.00 | 0.00 | 30 | 1014.8 |
| 20260503205007 | 79 | 202 | 19.0 | 22.0 | 0.00 | 0.00 | 0.00 | 29 | 1014.8 |
| 20260503204536 | 79 | 180 | 13.0 | 16.0 | 0.00 | 0.00 | 0.00 | 34 | 1015.1 |
| 20260503204008 | 79 | 180 | 16.0 | 19.0 | 0.00 | 0.00 | 0.00 | 34 | 1015.1 |
| 20260503203505 | 79 | 202 | 13.0 | 16.0 | 0.00 | 0.00 | 0.00 | 33 | 1015.1 |
| 20260503203005 | 79 | 202 | 19.0 | 23.0 | 0.00 | 0.00 | 0.00 | 30 | 1015.1 |
| 20260503202508 | 79 | 202 | 12.0 | 15.0 | 0.00 | 0.00 | 0.00 | 32 | 1015.4 |
| 20260503202009 | 79 | 202 | 13.0 | 18.0 | 0.00 | 0.00 | 0.00 | 32 | 1015.4 |
| 20260503201505 | 79 | 202 | 13.0 | 16.0 | 0.00 | 0.00 | 0.00 | 32 | 1015.8 |
| 20260503201008 | 79 | 202 | 10.0 | 13.0 | 0.00 | 0.00 | 0.00 | 30 | 1015.8 |
| 20260503200505 | 79 | 225 | 14.0 | 19.0 | 0.00 | 0.00 | 0.00 | 29 | 1015.8 |
| 20260503200008 | 79 | 157 | 11.0 | 20.0 | 0.00 | 0.00 | 0.00 | 30 | 1015.8 |
| 20260503195505 | 79 | 180 | 19.0 | 21.0 | 0.00 | 0.00 | 0.00 | 29 | 1015.8 |
| 20260503195008 | 79 | 202 | 17.0 | 19.0 | 0.00 | 0.00 | 0.00 | 34 | 1015.8 |
| 20260503194505 | 78 | 202 | 12.0 | 15.0 | 0.00 | 0.00 | 0.00 | 36 | 1016.1 |
| 20260503194008 | 78 | 180 | 11.0 | 17.0 | 0.00 | 0.00 | 0.00 | 37 | 1016.1 |
| 20260503193505 | 78 | 202 | 16.0 | 19.0 | 0.00 | 0.00 | 0.00 | 34 | 1016.1 |
| 20260503193008 | 78 | 202 | 15.0 | 19.0 | 0.00 | 0.00 | 0.00 | 34 | 1016.1 |
| 20260503192507 | 78 | 180 | 17.0 | 22.0 | 0.00 | 0.00 | 0.00 | 32 | 1016.5 |
| 20260503192004 | 78 | 202 | 11.0 | 14.0 | 0.00 | 0.00 | 0.00 | 38 | 1016.5 |
| 20260503191507 | 77 | 225 | 11.0 | 14.0 | 0.00 | 0.00 | 0.00 | 34 | 1016.5 |
| 20260503191004 | 77 | 225 | 17.0 | 21.0 | 0.00 | 0.00 | 0.00 | 34 | 1016.5 |
| 20260503190507 | 78 | 225 | 14.0 | 18.0 | 0.00 | 0.00 | 0.00 | 37 | 1016.5 |
| 20260503190004 | 77 | 225 | 9.0 | 11.0 | 0.00 | 0.00 | 0.00 | 37 | 1016.5 |
| 20260503185507 | 77 | 202 | 17.0 | 20.0 | 0.00 | 0.00 | 0.00 | 34 | 1017.1 |
| 20260503185008 | 78 | 202 | 12.0 | 17.0 | 0.00 | 0.00 | 0.00 | 37 | 1017.1 |
| 20260503184505 | 78 | 202 | 13.0 | 17.0 | 0.00 | 0.00 | 0.00 | 39 | 1017.1 |
| 20260503184046 | 77 | 247 | 13.0 | 17.0 | 0.00 | 0.00 | 0.00 | 38 | 1017.1 |
| 20260503183504 | 77 | 225 | 16.0 | 19.0 | 0.00 | 0.00 | 0.00 | 33 | 1017.1 |
| 20260503183004 | 77 | 225 | 13.0 | 17.0 | 0.00 | 0.00 | 0.00 | 37 | 1017.1 |
| 20260503182507 | 77 | 202 | 12.0 | 15.0 | 0.00 | 0.00 | 0.00 | 39 | 1017.5 |
| 20260503182005 | 77 | 202 | 15.0 | 26.0 | 0.00 | 0.00 | 0.00 | 39 | 1017.5 |
| 20260503181507 | 77 | 202 | 10.0 | 15.0 | 0.00 | 0.00 | 0.00 | 40 | 1017.8 |
| 20260503181004 | 77 | 180 | 17.0 | 21.0 | 0.00 | 0.00 | 0.00 | 38 | 1017.8 |
| 20260503180507 | 77 | 202 | 11.0 | 14.0 | 0.00 | 0.00 | 0.00 | 41 | 1017.8 |
| 20260503180005 | 76 | 225 | 13.0 | 17.0 | 0.00 | 0.00 | 0.00 | 39 | 1017.8 |
| 20260503175508 | 76 | 225 | 14.0 | 17.0 | 0.00 | 0.00 | 0.00 | 41 | 1018.2 |
| 20260503175005 | 76 | 225 | 12.0 | 16.0 | 0.00 | 0.00 | 0.00 | 42 | 1018.2 |
| 20260503174508 | 76 | 247 | 12.0 | 15.0 | 0.00 | 0.00 | 0.00 | 39 | 1018.5 |
| 20260503174005 | 76 | 202 | 14.0 | 16.0 | 0.00 | 0.00 | 0.00 | 39 | 1018.5 |
| 20260503173506 | 76 | 202 | 13.0 | 15.0 | 0.00 | 0.00 | 0.00 | 40 | 1018.5 |
| 20260503173009 | 76 | 247 | 12.0 | 16.0 | 0.00 | 0.00 | 0.00 | 41 | 1018.5 |
| 20260503172506 | 75 | 225 | 14.0 | 17.0 | 0.00 | 0.00 | 0.00 | 40 | 1018.5 |
| 20260503172003 | 75 | 247 | 12.0 | 18.0 | 0.00 | 0.00 | 0.00 | 44 | 1018.5 |
| 20260503171506 | 76 | 225 | 11.0 | 15.0 | 0.00 | 0.00 | 0.00 | 43 | 1018.8 |
| 20260503171009 | 75 | 202 | 13.0 | 20.0 | 0.00 | 0.00 | 0.00 | 43 | 1018.8 |
| 20260503170506 | 75 | 225 | 16.0 | 20.0 | 0.00 | 0.00 | 0.00 | 43 | 1018.8 |
| 20260503151009 | 71 | 225 | 14.0 | 18.0 | 0.00 | 0.00 | 0.00 | 53 | 1019.9 |
| 20260503150507 | 70 | 225 | 14.0 | 16.0 | 0.00 | 0.00 | 0.00 | 53 | 1019.9 |
| 20260503131004 | 60 | 202 | 4.0 | 6.0 | 0.00 | 0.00 | 0.00 | 90 | 1022.6 |
| 20260503130507 | 59 | 202 | 5.0 | 7.0 | 0.00 | 0.00 | 0.00 | 91 | 1022.9 |
| 20260503110503 | 52 | 225 | 3.0 | 4.0 | 0.00 | 0.00 | 0.00 | 95 | 1023.2 |
| 20260503090508 | 55 | 225 | 3.0 | 3.0 | 0.00 | 0.00 | 0.00 | 87 | 1022.6 |
| 20260503081507 | 56 | 202 | 5.0 | 5.0 | 0.00 | 0.00 | 0.00 | 85 | 1022.6 |
| 20260503081004 | 56 | 202 | 4.0 | 5.0 | 0.00 | 0.00 | 0.00 | 84 | 1022.6 |
| 20260503080507 | 56 | 202 | 5.0 | 6.0 | 0.00 | 0.00 | 0.00 | 84 | 1022.6 |
| 20260503072503 | 57 | 202 | 6.0 | 7.0 | 0.00 | 0.00 | 0.00 | 82 | 1022.6 |
| 20260503072006 | 57 | 202 | 7.0 | 8.0 | 0.00 | 0.00 | 0.00 | 81 | 1022.6 |
| 20260503071509 | 57 | 202 | 6.0 | 6.0 | 0.00 | 0.00 | 0.00 | 81 | 1022.6 |
| 20260503071032 | 57 | 202 | 5.0 | 6.0 | 0.00 | 0.00 | 0.00 | 80 | 1022.6 |
| 20260503070509 | 57 | 202 | 6.0 | 8.0 | 0.00 | 0.00 | 0.00 | 79 | 1022.6 |
| 20260503055004 | 59 | 202 | 3.0 | 4.0 | 0.00 | 0.00 | 0.00 | 77 | 1022.2 |
| 20260503054507 | 59 | 202 | 4.0 | 5.0 | 0.00 | 0.00 | 0.00 | 76 | 1021.9 |
| 20260503054004 | 59 | 202 | 3.0 | 4.0 | 0.00 | 0.00 | 0.00 | 76 | 1021.9 |
| 20260503053507 | 59 | 202 | 4.0 | 4.0 | 0.00 | 0.00 | 0.00 | 74 | 1021.9 |
| 20260503053004 | 59 | 202 | 3.0 | 3.0 | 0.00 | 0.00 | 0.00 | 74 | 1021.9 |
| 20260503052507 | 60 | 202 | 3.0 | 4.0 | 0.00 | 0.00 | 0.00 | 75 | 1021.9 |
| 20260503052004 | 60 | 202 | 4.0 | 5.0 | 0.00 | 0.00 | 0.00 | 75 | 1021.9 |
| 20260503051507 | 59 | 202 | 4.0 | 4.0 | 0.00 | 0.00 | 0.00 | 76 | 1021.9 |
| 20260503051004 | 59 | 202 | 5.0 | 5.0 | 0.00 | 0.00 | 0.00 | 76 | 1021.9 |
| 20260503050533 | 59 | 202 | 3.0 | 4.0 | 0.00 | 0.00 | 0.00 | 77 | 1021.9 |
| 20260503050003 | 60 | 202 | 3.0 | 3.0 | 0.00 | 0.00 | 0.00 | 77 | 1021.9 |
| 20260503045506 | 60 | 202 | 4.0 | 4.0 | 0.00 | 0.00 | 0.00 | 77 | 1021.9 |
| 20260503045004 | 60 | 202 | 3.0 | 4.0 | 0.00 | 0.00 | 0.00 | 77 | 1021.9 |
| 20260503044507 | 60 | 202 | 4.0 | 4.0 | 0.00 | 0.00 | 0.00 | 77 | 1021.9 |
| 20260503044004 | 60 | 202 | 3.0 | 3.0 | 0.00 | 0.00 | 0.00 | 75 | 1021.9 |
| 20260503043507 | 60 | 202 | 3.0 | 3.0 | 0.00 | 0.00 | 0.00 | 75 | 1021.5 |
| 20260503043004 | 61 | 202 | 3.0 | 3.0 | 0.00 | 0.00 | 0.00 | 74 | 1021.5 |
| 20260503042507 | 61 | 202 | 4.0 | 4.0 | 0.00 | 0.00 | 0.00 | 74 | 1021.2 |
| 20260503042004 | 61 | 202 | 4.0 | 5.0 | 0.00 | 0.00 | 0.00 | 73 | 1021.2 |
| 20260503041508 | 61 | 202 | 5.0 | 6.0 | 0.00 | 0.00 | 0.00 | 73 | 1021.5 |
| 20260503041005 | 61 | 202 | 5.0 | 5.0 | 0.00 | 0.00 | 0.00 | 73 | 1021.5 |
| 20260503040503 | 61 | 202 | 5.0 | 5.0 | 0.00 | 0.00 | 0.00 | 72 | 1021.2 |
| 20260503040006 | 61 | 202 | 5.0 | 5.0 | 0.00 | 0.00 | 0.00 | 72 | 1021.2 |
| 20260503035511 | 62 | 202 | 4.0 | 5.0 | 0.00 | 0.00 | 0.00 | 71 | 1021.2 |
| 20260503035006 | 62 | 202 | 5.0 | 5.0 | 0.00 | 0.00 | 0.00 | 70 | 1021.2 |
| 20260503034509 | 62 | 202 | 4.0 | 5.0 | 0.00 | 0.00 | 0.00 | 70 | 1021.2 |
| 20260503034006 | 62 | 202 | 4.0 | 4.0 | 0.00 | 0.00 | 0.00 | 69 | 1021.2 |
| 20260503033509 | 62 | 202 | 4.0 | 4.0 | 0.00 | 0.00 | 0.00 | 69 | 1021.2 |
| 20260503033006 | 63 | 202 | 4.0 | 4.0 | 0.00 | 0.00 | 0.00 | 69 | 1021.2 |
| 20260503032509 | 63 | 202 | 4.0 | 4.0 | 0.00 | 0.00 | 0.00 | 68 | 1020.9 |
| 20260503032006 | 63 | 202 | 4.0 | 5.0 | 0.00 | 0.00 | 0.00 | 67 | 1020.9 |
| 20260503031503 | 63 | 202 | 4.0 | 5.0 | 0.00 | 0.00 | 0.00 | 67 | 1020.9 |
| 20260503031006 | 63 | 202 | 4.0 | 5.0 | 0.00 | 0.00 | 0.00 | 66 | 1020.9 |
| 20260503030502 | 63 | 202 | 4.0 | 5.0 | 0.00 | 0.00 | 0.00 | 67 | 1020.5 |
| 20260503030026 | 63 | 202 | 4.0 | 4.0 | 0.00 | 0.00 | 0.00 | 68 | 1020.5 |
| 20260503025503 | 64 | 202 | 4.0 | 5.0 | 0.00 | 0.00 | 0.00 | 69 | 1020.5 |
| 20260503025006 | 64 | 202 | 4.0 | 5.0 | 0.00 | 0.00 | 0.00 | 67 | 1020.5 |
| 20260503024503 | 64 | 202 | 3.0 | 3.0 | 0.00 | 0.00 | 0.00 | 67 | 1020.5 |
| 20260503024006 | 64 | 202 | 3.0 | 4.0 | 0.00 | 0.00 | 0.00 | 66 | 1020.5 |
| 20260503023503 | 64 | 202 | 4.0 | 4.0 | 0.00 | 0.00 | 0.00 | 64 | 1019.9 |
| 20260503023006 | 65 | 202 | 3.0 | 3.0 | 0.00 | 0.00 | 0.00 | 63 | 1019.9 |
| 20260503022503 | 65 | 202 | 4.0 | 4.0 | 0.00 | 0.00 | 0.00 | 64 | 1019.9 |
| 20260503022006 | 65 | 202 | 4.0 | 4.0 | 0.00 | 0.00 | 0.00 | 62 | 1019.9 |
| 20260503021509 | 65 | 202 | 5.0 | 5.0 | 0.00 | 0.00 | 0.00 | 62 | 1019.9 |
| 20260503021006 | 65 | 202 | 4.0 | 5.0 | 0.00 | 0.00 | 0.00 | 63 | 1019.9 |
| 20260503020508 | 66 | 202 | 4.0 | 5.0 | 0.00 | 0.00 | 0.00 | 65 | 1019.9 |
| 20260503020005 | 66 | 202 | 4.0 | 4.0 | 0.00 | 0.00 | 0.00 | 62 | 1019.9 |
| 20260503015503 | 66 | 202 | 4.0 | 4.0 | 0.00 | 0.00 | 0.00 | 61 | 1019.5 |
| 20260503015002 | 67 | 202 | 3.0 | 4.0 | 0.00 | 0.00 | 0.00 | 58 | 1019.5 |
| 20260503014506 | 67 | 202 | 3.0 | 3.0 | 0.00 | 0.00 | 0.00 | 57 | 1019.2 |
| 20260503014006 | 68 | 202 | 3.0 | 4.0 | 0.00 | 0.00 | 0.00 | 58 | 1019.2 |
| 20260503013503 | 68 | 202 | 4.0 | 5.0 | 0.00 | 0.00 | 0.00 | 56 | 1018.8 |
| 20260503013006 | 69 | 202 | 4.0 | 4.0 | 0.00 | 0.00 | 0.00 | 54 | 1018.8 |
| 20260503012503 | 69 | 202 | 4.0 | 4.0 | 0.00 | 0.00 | 0.00 | 52 | 1018.5 |
| 20260503012006 | 70 | 202 | 4.0 | 5.0 | 0.00 | 0.00 | 0.00 | 51 | 1018.5 |
| 20260503011504 | 70 | 202 | 5.0 | 5.0 | 0.00 | 0.00 | 0.00 | 50 | 1018.5 |
| 20260503011007 | 71 | 202 | 4.0 | 5.0 | 0.00 | 0.00 | 0.00 | 48 | 1018.5 |
| 20260503010504 | 71 | 202 | 5.0 | 5.0 | 0.00 | 0.00 | 0.00 | 47 | 1017.8 |
| 20260503010006 | 72 | 202 | 5.0 | 6.0 | 0.00 | 0.00 | 0.00 | 46 | 1017.8 |
| 20260503005535 | 73 | 202 | 4.0 | 5.0 | 0.00 | 0.00 | 0.00 | 46 | 1017.8 |
| 20260503005006 | 73 | 202 | 4.0 | 5.0 | 0.00 | 0.00 | 0.00 | 45 | 1017.8 |
| 20260503004504 | 73 | 202 | 4.0 | 5.0 | 0.00 | 0.00 | 0.00 | 45 | 1017.8 |
| 20260503004007 | 74 | 202 | 4.0 | 4.0 | 0.00 | 0.00 | 0.00 | 45 | 1017.8 |
| 20260503003504 | 74 | 202 | 4.0 | 4.0 | 0.00 | 0.00 | 0.00 | 45 | 1017.5 |
| 20260503003007 | 74 | 202 | 4.0 | 4.0 | 0.00 | 0.00 | 0.00 | 45 | 1017.5 |
| 20260503002505 | 74 | 202 | 5.0 | 5.0 | 0.00 | 0.00 | 0.00 | 44 | 1017.1 |
| 20260503002008 | 74 | 202 | 5.0 | 7.0 | 0.00 | 0.00 | 0.00 | 43 | 1017.1 |
| 20260503001505 | 74 | 202 | 5.0 | 6.0 | 0.00 | 0.00 | 0.00 | 41 | 1017.1 |
| 20260503001008 | 74 | 225 | 6.0 | 8.0 | 0.00 | 0.00 | 0.00 | 39 | 1017.1 |
| 20260503000505 | 74 | 225 | 5.0 | 6.0 | 0.00 | 0.00 | 0.00 | 40 | 1017.1 |